Time,TemperatureF,DewpointF,PressureIn,WindDirection,WindDirectionDegrees,WindSpeedMPH,WindSpeedGustMPH,Humidity,HourlyPrecipIn,Conditions,Clouds,dailyrainin,SolarRadiationWatts/m^2,SoftwareType,DateUTC
2015-07-06 00:03:00,69.4,65.0,29.91,North,355,0.0,0.0,86,0.00,,---,0.00,0.00,VWS V14.01,2015-07-06 04:03:00,
2015-07-06 00:08:00,69.5,64.8,29.91,North,355,0.0,0.0,85,0.00,,---,0.00,0.00,VWS V14.01,2015-07-06 04:08:00,
2015-07-06 00:13:00,69.7,65.0,29.91,North,355,0.0,0.0,85,0.00,,---,0.00,0.00,VWS V14.01,2015-07-06 04:13:00,
2015-07-06 00:18:00,69.5,64.8,29.91,North,355,0.0,0.0,85,0.00,,---,0.00,0.00,VWS V14.01,2015-07-06 04:18:00,
2015-07-06 00:23:00,69.2,64.8,29.91,North,355,0.0,0.0,86,0.00,,---,0.00,0.00,VWS V14.01,2015-07-06 04:23:00,
2015-07-06 00:28:00,69.0,65.0,29.90,North,355,0.0,0.0,87,0.00,,---,0.00,0.00,VWS V14.01,2015-07-06 04:28:00,
2015-07-06 00:33:00,69.0,65.0,29.90,North,355,0.0,0.0,87,0.00,,---,0.00,0.00,VWS V14.01,2015-07-06 04:33:00,
2015-07-06 00:38:00,69.0,65.0,29.90,North,355,0.0,0.0,87,0.00,,---,0.00,0.00,VWS V14.01,2015-07-06 04:38:00,
2015-07-06 00:43:00,68.8,64.8,29.90,North,355,0.0,0.0,87,0.00,,---,0.00,0.00,VWS V14.01,2015-07-06 04:43:00,
2015-07-06 00:48:00,68.7,65.0,29.90,North,355,0.0,0.0,88,0.00,,---,0.00,0.00,VWS V14.01,2015-07-06 04:48:00,
2015-07-06 00:53:00,68.5,64.8,29.90,North,355,0.0,0.0,88,0.00,,---,0.00,0.00,VWS V14.01,2015-07-06 04:53:00,
2015-07-06 00:58:00,68.3,64.6,29.90,North,355,0.0,0.0,88,0.00,,---,0.00,0.00,VWS V14.01,2015-07-06 04:58:00,
2015-07-06 01:03:00,68.3,64.6,29.90,North,355,0.0,0.0,88,0.00,,---,0.00,0.00,VWS V14.01,2015-07-06 05:03:00,
2015-07-06 01:08:00,68.3,64.3,29.90,North,355,0.0,0.0,87,0.00,,---,0.00,0.00,VWS V14.01,2015-07-06 05:08:00,
2015-07-06 01:13:00,68.5,64.8,29.89,North,355,0.0,0.0,88,0.00,,---,0.00,0.00,VWS V14.01,2015-07-06 05:13:00,
2015-07-06 01:18:00,68.6,64.9,29.89,North,355,0.0,0.0,88,0.00,,---,0.00,0.00,VWS V14.01,2015-07-06 05:18:00,
2015-07-06 01:23:00,68.6,64.6,29.89,North,355,0.0,0.0,87,0.00,,---,0.00,0.00,VWS V14.01,2015-07-06 05:23:00,
2015-07-06 01:28:00,68.6,64.6,29.89,North,355,0.0,0.0,87,0.00,,---,0.00,0.00,VWS V14.01,2015-07-06 05:28:00,
2015-07-06 01:33:00,68.4,64.7,29.89,North,355,0.0,0.0,88,0.00,,---,0.00,0.00,VWS V14.01,2015-07-06 05:33:00,
2015-07-06 01:38:00,68.1,64.7,29.89,North,355,0.0,0.0,89,0.00,,---,0.00,0.00,VWS V14.01,2015-07-06 05:38:00,
2015-07-06 01:43:00,67.9,64.5,29.89,North,355,0.0,0.0,89,0.00,,---,0.00,0.00,VWS V14.01,2015-07-06 05:43:00,
2015-07-06 01:48:00,67.7,64.7,29.89,North,355,0.0,0.0,90,0.00,,---,0.00,0.00,VWS V14.01,2015-07-06 05:48:00,
2015-07-06 01:53:00,67.5,64.5,29.88,North,355,0.0,0.0,90,0.00,,---,0.00,0.00,VWS V14.01,2015-07-06 05:53:00,
2015-07-06 01:58:00,67.3,64.3,29.88,North,355,0.0,0.0,90,0.00,,---,0.00,0.00,VWS V14.01,2015-07-06 05:58:00,
2015-07-06 02:03:00,67.1,64.4,29.88,North,355,0.0,0.0,91,0.00,,---,0.00,0.00,VWS V14.01,2015-07-06 06:03:00,
2015-07-06 02:08:00,66.9,64.2,29.88,North,355,0.0,0.0,91,0.00,,---,0.00,0.00,VWS V14.01,2015-07-06 06:08:00,
2015-07-06 02:13:00,66.7,64.0,29.88,North,355,0.0,0.0,91,0.00,,---,0.00,0.00,VWS V14.01,2015-07-06 06:13:00,
2015-07-06 02:18:00,66.6,64.2,29.88,North,355,0.0,0.0,92,0.00,,---,0.00,0.00,VWS V14.01,2015-07-06 06:18:00,
2015-07-06 02:23:00,66.4,64.0,29.87,North,355,0.0,0.0,92,0.00,,---,0.00,0.00,VWS V14.01,2015-07-06 06:23:00,
2015-07-06 02:28:00,66.3,63.9,29.87,North,355,0.0,0.0,92,0.00,,---,0.00,0.00,VWS V14.01,2015-07-06 06:28:00,
2015-07-06 02:33:00,66.2,63.8,29.88,North,355,0.0,0.0,92,0.00,,---,0.00,0.00,VWS V14.01,2015-07-06 06:33:00,
2015-07-06 02:38:00,65.9,63.2,29.88,North,355,0.0,0.0,91,0.00,,---,0.00,0.00,VWS V14.01,2015-07-06 06:38:00,
2015-07-06 02:43:00,66.0,63.6,29.88,North,355,0.0,0.0,92,0.00,,---,0.00,0.00,VWS V14.01,2015-07-06 06:43:00,
2015-07-06 02:48:00,66.1,63.7,29.88,North,355,0.0,0.0,92,0.00,,---,0.00,0.00,VWS V14.01,2015-07-06 06:48:00,
2015-07-06 02:53:00,66.2,63.8,29.87,North,355,0.0,0.0,92,0.00,,---,0.00,0.00,VWS V14.01,2015-07-06 06:53:00,
2015-07-06 02:58:00,66.2,63.8,29.87,North,355,0.0,0.0,92,0.00,,---,0.00,0.00,VWS V14.01,2015-07-06 06:58:00,
2015-07-06 03:03:00,65.9,63.2,29.87,North,355,0.0,0.0,91,0.00,,---,0.00,0.00,VWS V14.01,2015-07-06 07:03:00,
2015-07-06 03:08:00,65.4,63.0,29.87,North,355,0.0,0.0,92,0.00,,---,0.00,0.00,VWS V14.01,2015-07-06 07:08:00,
2015-07-06 03:13:00,65.2,62.8,29.87,North,355,0.0,0.0,92,0.00,,---,0.00,0.00,VWS V14.01,2015-07-06 07:13:00,
2015-07-06 03:18:00,65.3,63.2,29.88,North,355,0.0,0.0,93,0.00,,---,0.00,0.00,VWS V14.01,2015-07-06 07:18:00,
2015-07-06 03:23:00,65.2,63.1,29.88,North,355,0.0,0.0,93,0.00,,---,0.00,0.00,VWS V14.01,2015-07-06 07:23:00,
2015-07-06 03:28:00,64.9,62.8,29.88,North,355,0.0,0.0,93,0.00,,---,0.00,0.00,VWS V14.01,2015-07-06 07:28:00,
2015-07-06 03:33:00,65.0,62.9,29.88,North,355,0.0,0.0,93,0.00,,---,0.00,0.00,VWS V14.01,2015-07-06 07:33:00,
2015-07-06 03:38:00,65.3,63.2,29.88,North,355,0.0,0.0,93,0.00,,---,0.00,0.00,VWS V14.01,2015-07-06 07:38:00,
2015-07-06 03:43:00,65.4,63.3,29.87,North,355,0.0,0.0,93,0.00,,---,0.00,0.00,VWS V14.01,2015-07-06 07:43:00,
2015-07-06 03:48:00,65.4,63.3,29.87,North,355,0.0,0.0,93,0.00,,---,0.00,0.00,VWS V14.01,2015-07-06 07:48:00,
2015-07-06 03:53:00,65.2,63.1,29.87,North,355,0.0,0.0,93,0.00,,---,0.00,0.00,VWS V14.01,2015-07-06 07:53:00,
2015-07-06 03:58:00,64.9,62.5,29.88,North,355,0.0,0.0,92,0.00,,---,0.00,0.00,VWS V14.01,2015-07-06 07:58:00,
2015-07-06 04:03:00,64.6,62.5,29.88,North,355,0.0,0.0,93,0.00,,---,0.00,0.00,VWS V14.01,2015-07-06 08:03:00,
2015-07-06 04:08:00,64.7,62.6,29.88,North,355,0.0,0.0,93,0.00,,---,0.00,0.00,VWS V14.01,2015-07-06 08:08:00,
2015-07-06 04:14:00,64.7,62.9,29.88,North,355,0.0,0.0,94,0.00,,---,0.00,0.00,VWS V14.01,2015-07-06 08:14:00,
2015-07-06 04:19:00,64.6,62.8,29.88,North,355,0.0,0.0,94,0.00,,---,0.00,0.00,VWS V14.01,2015-07-06 08:19:00,
2015-07-06 04:24:00,64.6,62.8,29.88,North,355,0.0,0.0,94,0.00,,---,0.00,0.00,VWS V14.01,2015-07-06 08:24:00,
2015-07-06 04:29:00,64.3,62.2,29.88,North,355,0.0,0.0,93,0.00,,---,0.00,0.00,VWS V14.01,2015-07-06 08:29:00,
2015-07-06 04:34:00,64.3,62.5,29.88,North,355,0.0,0.0,94,0.00,,---,0.00,0.00,VWS V14.01,2015-07-06 08:34:00,
2015-07-06 04:39:00,64.5,62.7,29.88,North,355,0.0,0.0,94,0.00,,---,0.00,0.00,VWS V14.01,2015-07-06 08:39:00,
2015-07-06 04:44:00,64.5,62.7,29.88,North,355,0.0,0.0,94,0.00,,---,0.00,0.00,VWS V14.01,2015-07-06 08:44:00,
2015-07-06 04:49:00,64.3,62.2,29.88,North,355,0.0,0.0,93,0.00,,---,0.00,0.00,VWS V14.01,2015-07-06 08:49:00,
2015-07-06 04:54:00,64.1,62.3,29.88,North,355,0.0,0.0,94,0.00,,---,0.00,0.00,VWS V14.01,2015-07-06 08:54:00,
2015-07-06 04:59:00,64.0,62.2,29.88,North,355,0.0,0.0,94,0.00,,---,0.00,0.00,VWS V14.01,2015-07-06 08:59:00,
2015-07-06 05:04:00,63.9,62.1,29.89,North,355,0.0,0.0,94,0.00,,---,0.00,0.00,VWS V14.01,2015-07-06 09:04:00,